FW5872 Weather Reports


time (UTC)temp
F
wind
direction
speed
knots
gust
knots
rain 1hr
in
rain 24hr
in
rain mn
in
humidity
%
barometer
mb
20260505111535 61 274 0.9 2.6 0.00 0.00 0.00 63 1012.6
20260505101535 57 0 0.0 0.0 0.00 0.00 0.00 72 1011.8
20260505100038 55 0 0.0 0.0 0.00 0.00 0.00 77 1011.9
20260505094528 54 0 0.0 0.0 0.00 0.00 0.00 78 1011.8
20260505093031 53 0 0.0 0.0 0.00 0.00 0.00 81 1011.6
20260505091534 54 0 0.0 0.0 0.00 0.00 0.00 81 1011.7
20260505090027 54 0 0.0 0.0 0.00 0.00 0.00 81 1011.5
20260505084528 54 0 0.0 0.0 0.00 0.00 0.00 80 1011.6
20260505083039 55 0 0.0 0.0 0.00 0.00 0.00 79 1011.6
20260505081532 55 0 0.0 0.0 0.00 0.00 0.00 79 1011.6
20260505080044 55 0 0.0 0.0 0.00 0.00 0.00 78 1011.5
20260505074529 56 0 0.0 0.0 0.00 0.00 0.00 77 1011.5
20260505073038 56 0 0.0 0.0 0.00 0.00 0.00 77 1011.3
20260505071538 56 0 0.0 0.0 0.00 0.00 0.00 76 1011.3
20260505070030 56 0 0.0 0.0 0.00 0.00 0.00 75 1011.2
20260505064531 56 0 0.0 0.0 0.00 0.00 0.00 76 1011.1
20260505063042 57 0 0.0 0.0 0.00 0.00 0.00 76 1011.3
20260505061534 58 0 0.0 0.0 0.00 0.00 0.00 74 1011.3
20260505060029 59 0 0.0 0.0 0.00 0.00 0.00 72 1011.3
20260505054541 60 0 0.0 0.0 0.00 0.00 0.00 70 1011.3
20260505053028 60 0 0.0 0.9 0.00 0.00 0.00 70 1011.2
20260505051538 61 0 0.0 0.9 0.00 0.00 0.00 68 1011.3
20260505041544 64 0 0.0 0.0 0.00 0.00 0.00 61 1011.5
20260505040030 63 0 0.0 0.9 0.00 0.00 0.00 61 1011.4
20260505034528 64 0 0.0 0.9 0.00 0.00 0.00 60 1011.2
20260505033028 64 0 0.0 0.9 0.00 0.00 0.00 59 1011.3
20260505031534 65 0 0.0 0.9 0.00 0.00 0.00 57 1011.3
20260505030028 67 0 0.0 1.7 0.00 0.00 0.00 54 1011.2
20260505024531 67 278 0.9 3.5 0.00 0.00 0.00 53 1011.2
20260505023031 68 281 0.9 2.6 0.00 0.00 0.00 52 1011.2
20260505021530 67 266 0.9 2.6 0.00 0.00 0.00 52 1011.2
20260505020038 66 0 0.0 0.9 0.00 0.00 0.00 54 1011.0
20260505014529 66 0 0.0 0.9 0.00 0.00 0.00 53 1010.9
20260505013032 67 0 0.0 0.9 0.00 0.00 0.00 53 1010.8
20260505011534 68 0 0.0 0.9 0.00 0.00 0.00 51 1010.7
20260505010044 69 0 0.0 0.9 0.00 0.00 0.00 48 1010.5
20260505004528 70 0 0.0 0.9 0.00 0.00 0.00 47 1010.6
20260505003030 71 283 0.0 2.6 0.00 0.00 0.00 45 1010.5
20260505001535 72 0 0.0 4.3 0.00 0.00 0.00 44 1010.4
20260505000039 72 276 0.9 2.6 0.00 0.00 0.00 43 1010.3
20260504234533 72 34 1.7 3.5 0.00 0.00 0.00 43 1010.3
20260504233031 73 0 0.9 4.3 0.00 0.00 0.00 42 1010.1
20260504231532 73 326 0.9 4.3 0.00 0.00 0.00 41 1010.0
20260504230030 73 354 0.9 5.2 0.00 0.00 0.00 40 1010.0
20260504224535 74 278 0.0 4.3 0.00 0.00 0.00 40 1010.1
20260504223032 74 249 2.6 7.0 0.00 0.00 0.00 39 1010.0
20260504221530 74 32 0.9 7.8 0.00 0.00 0.00 39 1009.9
20260504220030 75 92 0.9 4.3 0.00 0.00 0.00 38 1009.9
20260504214539 76 20 0.9 4.3 0.00 0.00 0.00 38 1010.0
20260504213030 76 281 2.6 5.2 0.00 0.00 0.00 37 1009.9
20260504211530 76 69 0.0 4.3 0.00 0.00 0.00 36 1009.8
20260504210030 76 297 0.9 6.1 0.00 0.00 0.00 35 1010.0
20260504204530 76 286 1.7 5.2 0.00 0.00 0.00 36 1009.8
20260504203030 76 283 1.7 4.3 0.00 0.00 0.00 35 1010.1
20260504201529 77 281 0.0 4.3 0.00 0.00 0.00 38 1010.1
20260504200035 76 260 2.6 5.2 0.00 0.00 0.00 35 1010.6
20260504194531 76 288 0.9 4.3 0.00 0.00 0.00 36 1010.6
20260504193030 77 273 0.9 6.1 0.00 0.00 0.00 36 1010.8
20260504191533 77 285 1.7 5.2 0.00 0.00 0.00 36 1011.0
20260504190028 75 285 2.6 5.2 0.00 0.00 0.00 37 1011.4
20260504184536 75 266 1.7 4.3 0.00 0.00 0.00 38 1011.9
20260504183036 75 287 1.7 6.1 0.00 0.00 0.00 36 1012.1
20260504181532 74 294 2.6 6.1 0.00 0.00 0.00 36 1012.2
20260504180030 74 269 2.6 6.1 0.00 0.00 0.00 38 1012.4
20260504174528 73 283 1.7 6.1 0.00 0.00 0.00 39 1012.6
20260504173030 73 258 0.9 5.2 0.00 0.00 0.00 42 1012.9
20260504171530 72 358 0.9 6.1 0.00 0.00 0.00 39 1013.0